Year,Month,Day,Hour,Minute,Value (Times are PST for temperature in C)
2010,02,18,00,00,4.30
2010,02,18,00,01,4.30
2010,02,18,00,02,4.30
2010,02,18,00,03,4.30
2010,02,18,00,04,4.30
2010,02,18,00,05,4.20
2010,02,18,00,06,4.20
2010,02,18,00,07,4.20
2010,02,18,00,08,4.20
2010,02,18,00,09,4.20
2010,02,18,00,10,4.10
2010,02,18,00,11,4.10
2010,02,18,00,12,4.10
2010,02,18,00,13,4.20
2010,02,18,00,14,4.20
2010,02,18,00,15,4.20
2010,02,18,00,16,4.20
2010,02,18,00,17,4.20
2010,02,18,00,18,4.10
2010,02,18,00,19,4.10
2010,02,18,00,20,4.10
2010,02,18,00,21,4.10
2010,02,18,00,22,4.10
2010,02,18,00,23,4.10
2010,02,18,00,24,4.10
2010,02,18,00,25,4.00
2010,02,18,00,26,4.00
2010,02,18,00,27,3.90
2010,02,18,00,28,3.90
2010,02,18,00,29,3.90
2010,02,18,00,30,3.80
2010,02,18,00,31,3.80
2010,02,18,00,32,3.80
2010,02,18,00,33,3.80
2010,02,18,00,34,3.90
2010,02,18,00,35,3.90
2010,02,18,00,36,3.90
2010,02,18,00,37,3.90
2010,02,18,00,38,4.00
2010,02,18,00,39,4.00
2010,02,18,00,40,4.10
2010,02,18,00,41,4.10
2010,02,18,00,42,4.20
2010,02,18,00,43,4.20
2010,02,18,00,44,4.20
2010,02,18,00,45,4.20
2010,02,18,00,46,4.20
2010,02,18,00,47,4.20
2010,02,18,00,48,4.20
2010,02,18,00,49,4.20
2010,02,18,00,50,4.20
2010,02,18,00,51,4.20
2010,02,18,00,52,4.20
2010,02,18,00,53,4.10
2010,02,18,00,54,4.20
2010,02,18,00,55,4.20
2010,02,18,00,56,4.10
2010,02,18,00,57,4.10
2010,02,18,00,58,4.10
2010,02,18,00,59,4.10
2010,02,18,01,00,4.10
2010,02,18,01,01,4.10
2010,02,18,01,02,4.10
2010,02,18,01,03,4.10
2010,02,18,01,04,4.10
2010,02,18,01,05,4.00
2010,02,18,01,06,4.00
2010,02,18,01,07,4.00
2010,02,18,01,08,3.90
2010,02,18,01,09,3.90
2010,02,18,01,10,3.90
2010,02,18,01,11,3.90
2010,02,18,01,12,3.90
2010,02,18,01,13,3.80
2010,02,18,01,14,3.80
2010,02,18,01,15,3.80
2010,02,18,01,16,3.80
2010,02,18,01,17,3.80
2010,02,18,01,18,3.70
2010,02,18,01,19,3.70
2010,02,18,01,20,3.70
2010,02,18,01,21,3.60
2010,02,18,01,22,3.60
2010,02,18,01,23,3.60
2010,02,18,01,24,3.60
2010,02,18,01,25,3.60
2010,02,18,01,26,3.50
2010,02,18,01,27,3.50
2010,02,18,01,28,3.50
2010,02,18,01,29,3.50
2010,02,18,01,30,3.60
2010,02,18,01,31,3.60
2010,02,18,01,32,3.60
2010,02,18,01,33,3.60
2010,02,18,01,34,3.60
2010,02,18,01,35,3.60
2010,02,18,01,36,3.60
2010,02,18,01,37,3.60
2010,02,18,01,38,3.60
2010,02,18,01,39,3.60
2010,02,18,01,40,3.60
2010,02,18,01,41,3.70
2010,02,18,01,42,3.70
2010,02,18,01,43,3.70
2010,02,18,01,44,3.70
2010,02,18,01,45,3.70
2010,02,18,01,46,3.70
2010,02,18,01,47,3.70
2010,02,18,01,48,3.70
2010,02,18,01,49,3.70
2010,02,18,01,50,3.60
2010,02,18,01,51,3.60
2010,02,18,01,52,3.60
2010,02,18,01,53,3.50
2010,02,18,01,54,3.50
2010,02,18,01,55,3.50
2010,02,18,01,56,3.50
2010,02,18,01,57,3.50
2010,02,18,01,58,3.50
2010,02,18,01,59,3.50
2010,02,18,02,00,3.40
2010,02,18,02,01,3.40
2010,02,18,02,02,3.40
2010,02,18,02,03,3.30
2010,02,18,02,04,3.30
2010,02,18,02,05,3.30
2010,02,18,02,06,3.20
2010,02,18,02,07,3.20
2010,02,18,02,08,3.20
2010,02,18,02,09,3.10
2010,02,18,02,10,3.10
2010,02,18,02,11,3.10
2010,02,18,02,12,3.10
2010,02,18,02,13,3.10
2010,02,18,02,14,3.00
2010,02,18,02,15,3.00
2010,02,18,02,16,3.00
2010,02,18,02,17,3.00
2010,02,18,02,18,2.90
2010,02,18,02,19,2.90
2010,02,18,02,20,2.90
2010,02,18,02,21,2.90
2010,02,18,02,22,2.90
2010,02,18,02,23,2.90
2010,02,18,02,24,2.80
2010,02,18,02,25,2.80
2010,02,18,02,26,2.80
2010,02,18,02,27,2.80
2010,02,18,02,28,2.80
2010,02,18,02,29,2.90
2010,02,18,02,30,2.90
2010,02,18,02,31,3.00
2010,02,18,02,32,3.10
2010,02,18,02,33,3.10
2010,02,18,02,34,3.10
2010,02,18,02,35,3.10
2010,02,18,02,36,3.20
2010,02,18,02,37,3.20
2010,02,18,02,38,3.20
2010,02,18,02,39,3.20
2010,02,18,02,40,3.20
2010,02,18,02,41,3.20
2010,02,18,02,42,3.30
2010,02,18,02,43,3.40
2010,02,18,02,44,3.60
2010,02,18,02,45,3.80
2010,02,18,02,46,3.80
2010,02,18,02,47,3.90
2010,02,18,02,48,3.90
2010,02,18,02,49,3.90
2010,02,18,02,50,3.90
2010,02,18,02,51,3.90
2010,02,18,02,52,3.90
2010,02,18,02,53,3.90
2010,02,18,02,54,3.90
2010,02,18,02,55,3.80
2010,02,18,02,56,3.80
2010,02,18,02,57,3.80
2010,02,18,02,58,3.80
2010,02,18,02,59,3.80
2010,02,18,03,00,3.70
2010,02,18,03,01,3.70
2010,02,18,03,02,3.70
2010,02,18,03,03,3.70
2010,02,18,03,04,3.80
2010,02,18,03,05,3.80
2010,02,18,03,06,3.80
2010,02,18,03,07,3.80
2010,02,18,03,08,3.80
2010,02,18,03,09,3.80
2010,02,18,03,10,3.80
2010,02,18,03,11,3.80
2010,02,18,03,12,3.80
2010,02,18,03,13,3.80
2010,02,18,03,14,3.80
2010,02,18,03,15,3.80
2010,02,18,03,16,3.80
2010,02,18,03,17,3.80
2010,02,18,03,18,3.80
2010,02,18,03,19,3.80
2010,02,18,03,20,3.80
2010,02,18,03,21,3.80
2010,02,18,03,22,3.80
2010,02,18,03,23,3.80
2010,02,18,03,24,3.80
2010,02,18,03,25,3.80
2010,02,18,03,26,3.70
2010,02,18,03,27,3.70
2010,02,18,03,28,3.70
2010,02,18,03,29,3.60
2010,02,18,03,30,3.60
2010,02,18,03,31,3.60
2010,02,18,03,32,3.60
2010,02,18,03,33,3.50
2010,02,18,03,34,3.50
2010,02,18,03,35,3.40
2010,02,18,03,36,3.40
2010,02,18,03,37,3.40
2010,02,18,03,38,3.30
2010,02,18,03,39,3.30
2010,02,18,03,40,3.30
2010,02,18,03,41,3.30
2010,02,18,03,42,3.30
2010,02,18,03,43,3.20
2010,02,18,03,44,3.20
2010,02,18,03,45,3.20
2010,02,18,03,46,3.20
2010,02,18,03,47,3.20
2010,02,18,03,48,3.20
2010,02,18,03,49,3.10
2010,02,18,03,50,3.10
2010,02,18,03,51,3.10
2010,02,18,03,52,3.10
2010,02,18,03,53,3.20
2010,02,18,03,54,3.10
2010,02,18,03,55,3.10
2010,02,18,03,56,3.20
2010,02,18,03,57,3.20
2010,02,18,03,58,3.20
2010,02,18,03,59,3.20
2010,02,18,04,00,3.20
2010,02,18,04,01,3.20
2010,02,18,04,02,3.10
2010,02,18,04,03,3.10
2010,02,18,04,04,3.10
2010,02,18,04,05,3.10
2010,02,18,04,06,3.10
2010,02,18,04,07,3.10
2010,02,18,04,08,3.00
2010,02,18,04,09,3.00
2010,02,18,04,10,2.90
2010,02,18,04,11,2.90
2010,02,18,04,12,2.90
2010,02,18,04,13,2.90
2010,02,18,04,14,2.80
2010,02,18,04,15,2.80
2010,02,18,04,16,2.90
2010,02,18,04,17,2.90
2010,02,18,04,18,2.90
2010,02,18,04,19,2.90
2010,02,18,04,20,2.90
2010,02,18,04,21,2.90
2010,02,18,04,22,2.90
2010,02,18,04,23,2.90
2010,02,18,04,24,2.80
2010,02,18,04,25,2.80
2010,02,18,04,26,2.70
2010,02,18,04,27,2.70
2010,02,18,04,28,2.70
2010,02,18,04,29,2.60
2010,02,18,04,30,2.60
2010,02,18,04,31,2.60
2010,02,18,04,32,2.60
2010,02,18,04,33,2.50
2010,02,18,04,34,2.50
2010,02,18,04,35,2.40
2010,02,18,04,36,2.40
2010,02,18,04,37,2.40
2010,02,18,04,38,2.30
2010,02,18,04,39,2.30
2010,02,18,04,40,2.30
2010,02,18,04,41,2.20
2010,02,18,04,42,2.20
2010,02,18,04,43,2.20
2010,02,18,04,44,2.20
2010,02,18,04,45,2.20
2010,02,18,04,46,2.10
2010,02,18,04,47,2.10
2010,02,18,04,48,2.10
2010,02,18,04,49,2.10
2010,02,18,04,50,2.00
2010,02,18,04,51,2.00
2010,02,18,04,52,2.00
2010,02,18,04,53,2.00
2010,02,18,04,54,1.90
2010,02,18,04,55,1.90
2010,02,18,04,56,1.90
2010,02,18,04,57,1.90
2010,02,18,04,58,1.90
2010,02,18,04,59,1.90
2010,02,18,05,00,1.90
2010,02,18,05,01,1.90
2010,02,18,05,02,1.90
2010,02,18,05,03,1.90
2010,02,18,05,04,1.90
2010,02,18,05,05,1.90
2010,02,18,05,06,2.00
2010,02,18,05,07,2.00
2010,02,18,05,08,1.90
2010,02,18,05,09,1.90
2010,02,18,05,10,1.90
2010,02,18,05,11,1.90
2010,02,18,05,12,1.90
2010,02,18,05,13,1.90
2010,02,18,05,14,1.90
2010,02,18,05,15,1.90
2010,02,18,05,16,1.80
2010,02,18,05,17,1.80
2010,02,18,05,18,1.80
2010,02,18,05,19,1.80
2010,02,18,05,20,1.80
2010,02,18,05,21,1.70
2010,02,18,05,22,1.70
2010,02,18,05,23,1.70
2010,02,18,05,24,1.70
2010,02,18,05,25,1.70
2010,02,18,05,26,1.70
2010,02,18,05,27,1.70
2010,02,18,05,28,1.70
2010,02,18,05,29,1.70
2010,02,18,05,30,1.80
2010,02,18,05,31,1.80
2010,02,18,05,32,1.80
2010,02,18,05,33,1.80
2010,02,18,05,34,1.80
2010,02,18,05,35,1.80
2010,02,18,05,36,1.80
2010,02,18,05,37,1.80
2010,02,18,05,38,1.80
2010,02,18,05,39,1.70
2010,02,18,05,40,1.70
2010,02,18,05,41,1.70
2010,02,18,05,42,1.70
2010,02,18,05,43,1.70
2010,02,18,05,44,1.60
2010,02,18,05,45,1.60
2010,02,18,05,46,1.60
2010,02,18,05,47,1.60
2010,02,18,05,48,1.60
2010,02,18,05,49,1.60
2010,02,18,05,50,1.50
2010,02,18,05,51,1.50
2010,02,18,05,52,1.50
2010,02,18,05,53,1.50
2010,02,18,05,54,1.50
2010,02,18,05,55,1.40
2010,02,18,05,56,1.40
2010,02,18,05,57,1.40
2010,02,18,05,58,1.40
2010,02,18,05,59,1.40
2010,02,18,06,00,1.40
2010,02,18,06,01,1.40
2010,02,18,06,02,1.30
2010,02,18,06,03,1.40
2010,02,18,06,04,1.40
2010,02,18,06,05,1.40
2010,02,18,06,06,1.40
2010,02,18,06,07,1.40
2010,02,18,06,08,1.40
2010,02,18,06,09,1.40
2010,02,18,06,10,1.40
2010,02,18,06,11,1.40
2010,02,18,06,12,1.40
2010,02,18,06,13,1.40
2010,02,18,06,14,1.30
2010,02,18,06,15,1.30
2010,02,18,06,16,1.30
2010,02,18,06,17,1.30
2010,02,18,06,18,1.30
2010,02,18,06,19,1.30
2010,02,18,06,20,1.30
2010,02,18,06,21,1.30
2010,02,18,06,22,1.30
2010,02,18,06,23,1.30
2010,02,18,06,24,1.30
2010,02,18,06,25,1.30
2010,02,18,06,26,1.30
2010,02,18,06,27,1.30
2010,02,18,06,28,1.30
2010,02,18,06,29,1.30
2010,02,18,06,30,1.30
2010,02,18,06,31,1.30
2010,02,18,06,32,1.30
2010,02,18,06,33,1.30
2010,02,18,06,34,1.30
2010,02,18,06,35,1.30
2010,02,18,06,36,1.30
2010,02,18,06,37,1.30
2010,02,18,06,38,1.30
2010,02,18,06,39,1.30
2010,02,18,06,40,1.30
2010,02,18,06,41,1.20
2010,02,18,06,42,1.20
2010,02,18,06,43,1.20
2010,02,18,06,44,1.20
2010,02,18,06,45,1.20
2010,02,18,06,46,1.20
2010,02,18,06,47,1.20
2010,02,18,06,48,1.20
2010,02,18,06,49,1.20
2010,02,18,06,50,1.10
2010,02,18,06,51,1.10
2010,02,18,06,52,1.10
2010,02,18,06,53,1.10
2010,02,18,06,54,1.10
2010,02,18,06,55,1.10
2010,02,18,06,56,1.10
2010,02,18,06,57,1.10
2010,02,18,06,58,1.10
2010,02,18,06,59,1.10
2010,02,18,07,00,1.10
2010,02,18,07,01,1.10
2010,02,18,07,02,1.10
2010,02,18,07,03,1.10
2010,02,18,07,04,1.10
2010,02,18,07,05,1.00
2010,02,18,07,06,1.00
2010,02,18,07,07,1.00
2010,02,18,07,08,0.90
2010,02,18,07,09,0.90
2010,02,18,07,10,0.90
2010,02,18,07,11,0.90
2010,02,18,07,12,0.90
2010,02,18,07,13,0.90
2010,02,18,07,14,0.90
2010,02,18,07,15,0.90
2010,02,18,07,16,0.90
2010,02,18,07,17,0.90
2010,02,18,07,18,0.90
2010,02,18,07,19,0.90
2010,02,18,07,20,0.90
2010,02,18,07,21,0.90
2010,02,18,07,22,0.90
2010,02,18,07,23,0.90
2010,02,18,07,24,0.90
2010,02,18,07,25,0.90
2010,02,18,07,26,0.90
2010,02,18,07,27,0.80
2010,02,18,07,28,0.80
2010,02,18,07,29,0.80
2010,02,18,07,30,0.80
2010,02,18,07,31,0.80
2010,02,18,07,32,0.80
2010,02,18,07,33,0.80
2010,02,18,07,34,0.80
2010,02,18,07,35,0.80
2010,02,18,07,36,0.90
2010,02,18,07,37,0.90
2010,02,18,07,38,1.00
2010,02,18,07,39,1.00
2010,02,18,07,40,1.10
2010,02,18,07,41,1.10
2010,02,18,07,42,1.10
2010,02,18,07,43,1.10
2010,02,18,07,44,1.10
2010,02,18,07,45,1.10
2010,02,18,07,46,1.00
2010,02,18,07,47,1.00
2010,02,18,07,48,1.00
2010,02,18,07,49,1.10
2010,02,18,07,50,1.10
2010,02,18,07,51,1.10
2010,02,18,07,52,1.10
2010,02,18,07,53,1.10
2010,02,18,07,54,1.10
2010,02,18,07,55,1.10
2010,02,18,07,56,1.10
2010,02,18,07,57,1.20
2010,02,18,07,58,1.20
2010,02,18,07,59,1.20
2010,02,18,08,00,1.20
2010,02,18,08,01,1.30
2010,02,18,08,02,1.30
2010,02,18,08,03,1.30
2010,02,18,08,04,1.30
2010,02,18,08,05,1.30
2010,02,18,08,06,1.30
2010,02,18,08,07,1.40
2010,02,18,08,08,1.40
2010,02,18,08,09,1.50
2010,02,18,08,10,1.50
2010,02,18,08,11,1.60
2010,02,18,08,12,1.60
2010,02,18,08,13,1.70
2010,02,18,08,14,1.70
2010,02,18,08,15,1.70
2010,02,18,08,16,1.80
2010,02,18,08,17,1.80
2010,02,18,08,18,1.80
2010,02,18,08,19,1.80
2010,02,18,08,20,1.90
2010,02,18,08,21,2.00
2010,02,18,08,22,2.10
2010,02,18,08,23,2.10
2010,02,18,08,24,2.20
2010,02,18,08,25,2.20
2010,02,18,08,26,2.20
2010,02,18,08,27,2.30
2010,02,18,08,28,2.30
2010,02,18,08,29,2.40
2010,02,18,08,30,2.50
2010,02,18,08,31,2.60
2010,02,18,08,32,2.70
2010,02,18,08,33,2.80
2010,02,18,08,34,2.90
2010,02,18,08,35,3.00
2010,02,18,08,36,3.10
2010,02,18,08,37,3.30
2010,02,18,08,38,3.40
2010,02,18,08,39,3.50
2010,02,18,08,40,3.60
2010,02,18,08,41,3.70
2010,02,18,08,42,3.70
2010,02,18,08,43,3.80
2010,02,18,08,44,3.90
2010,02,18,08,45,3.90
2010,02,18,08,46,4.00
2010,02,18,08,47,4.10
2010,02,18,08,48,4.10
2010,02,18,08,49,4.20
2010,02,18,08,50,4.30
2010,02,18,08,51,4.40
2010,02,18,08,52,4.50
2010,02,18,08,53,4.70
2010,02,18,08,54,4.90
2010,02,18,08,55,5.10
2010,02,18,08,56,5.20
2010,02,18,08,57,5.40
2010,02,18,08,58,5.50
2010,02,18,08,59,5.70
2010,02,18,09,00,5.80
2010,02,18,09,01,5.80
2010,02,18,09,02,5.80
2010,02,18,09,03,5.90
2010,02,18,09,04,6.10
2010,02,18,09,05,6.10
2010,02,18,09,06,6.10
2010,02,18,09,07,6.10
2010,02,18,09,08,6.10
2010,02,18,09,09,6.10
2010,02,18,09,10,6.30
2010,02,18,09,11,6.30
2010,02,18,09,12,6.40
2010,02,18,09,13,6.50
2010,02,18,09,14,6.60
2010,02,18,09,15,6.80
2010,02,18,09,16,6.90
2010,02,18,09,17,7.00
2010,02,18,09,18,7.00
2010,02,18,09,19,7.20
2010,02,18,09,20,7.30
2010,02,18,09,21,7.40
2010,02,18,09,22,7.50
2010,02,18,09,23,7.60
2010,02,18,09,24,7.60
2010,02,18,09,25,7.70
2010,02,18,09,26,7.70
2010,02,18,09,27,7.90
2010,02,18,09,28,8.10
2010,02,18,09,29,8.20
2010,02,18,09,30,8.30
2010,02,18,09,31,8.30
2010,02,18,09,32,8.40
2010,02,18,09,33,8.40
2010,02,18,09,34,8.40
2010,02,18,09,35,8.40
2010,02,18,09,36,8.50
2010,02,18,09,37,8.60
2010,02,18,09,38,8.60
2010,02,18,09,39,8.60
2010,02,18,09,40,8.70
2010,02,18,09,41,8.70
2010,02,18,09,42,8.70
2010,02,18,09,43,8.80
2010,02,18,09,44,8.80
2010,02,18,09,45,8.90
2010,02,18,09,46,9.00
2010,02,18,09,47,9.00
2010,02,18,09,48,9.10
2010,02,18,09,49,9.00
2010,02,18,09,50,8.90
2010,02,18,09,51,8.90
2010,02,18,09,52,8.90
2010,02,18,09,53,8.90
2010,02,18,09,54,8.90
2010,02,18,09,55,8.90
2010,02,18,09,56,8.90
2010,02,18,09,57,8.90
2010,02,18,09,58,8.90
2010,02,18,09,59,9.00
2010,02,18,10,00,9.00
2010,02,18,10,01,9.10
2010,02,18,10,02,9.10
2010,02,18,10,03,9.00
2010,02,18,10,04,9.00
2010,02,18,10,05,9.00
2010,02,18,10,06,9.10
2010,02,18,10,07,9.10
2010,02,18,10,08,9.10
2010,02,18,10,09,9.10
2010,02,18,10,10,9.10
2010,02,18,10,11,9.10
2010,02,18,10,12,9.10
2010,02,18,10,13,9.20
2010,02,18,10,14,9.20
2010,02,18,10,15,9.20
2010,02,18,10,16,9.20
2010,02,18,10,17,9.30
2010,02,18,10,18,9.30
2010,02,18,10,19,9.30
2010,02,18,10,20,9.40
2010,02,18,10,21,9.40
2010,02,18,10,22,9.40
2010,02,18,10,23,9.40
2010,02,18,10,24,9.40
2010,02,18,10,25,9.40
2010,02,18,10,26,9.30
2010,02,18,10,27,9.30
2010,02,18,10,28,9.20
2010,02,18,10,29,9.20
2010,02,18,10,30,9.30
2010,02,18,10,31,9.40
2010,02,18,10,32,9.40
2010,02,18,10,33,9.40
2010,02,18,10,34,9.40
2010,02,18,10,35,9.30
2010,02,18,10,36,9.30
2010,02,18,10,37,9.30
2010,02,18,10,38,9.30
2010,02,18,10,39,9.30
2010,02,18,10,40,9.30
2010,02,18,10,41,9.30
2010,02,18,10,42,9.40
2010,02,18,10,43,9.40
2010,02,18,10,44,9.40
2010,02,18,10,45,9.40
2010,02,18,10,46,9.40
2010,02,18,10,47,9.40
2010,02,18,10,48,9.40
2010,02,18,10,49,9.50
2010,02,18,10,50,9.50
2010,02,18,10,51,9.50
2010,02,18,10,52,9.60
2010,02,18,10,53,9.60
2010,02,18,10,54,9.70
2010,02,18,10,55,9.70
2010,02,18,10,56,9.70
2010,02,18,10,57,9.70
2010,02,18,10,58,9.60
2010,02,18,10,59,9.60
2010,02,18,11,00,9.60
2010,02,18,11,01,9.60
2010,02,18,11,02,9.60
2010,02,18,11,03,9.60
2010,02,18,11,04,9.60
2010,02,18,11,05,9.60
2010,02,18,11,06,9.60
2010,02,18,11,07,9.60
2010,02,18,11,08,9.60
2010,02,18,11,09,9.60
2010,02,18,11,10,9.70
2010,02,18,11,11,9.70
2010,02,18,11,12,9.80
2010,02,18,11,13,9.80
2010,02,18,11,14,9.70
2010,02,18,11,15,9.80
2010,02,18,11,16,9.70
2010,02,18,11,17,9.70
2010,02,18,11,18,9.70
2010,02,18,11,19,9.80
2010,02,18,11,20,9.80
2010,02,18,11,21,9.80
2010,02,18,11,22,9.80
2010,02,18,11,23,9.80
2010,02,18,11,24,9.90
2010,02,18,11,25,9.90
2010,02,18,11,26,9.90
2010,02,18,11,27,9.90
2010,02,18,11,28,9.90
2010,02,18,11,29,9.80
2010,02,18,11,30,9.80
2010,02,18,11,31,9.70
2010,02,18,11,32,9.80
2010,02,18,11,33,9.80
2010,02,18,11,34,9.80
2010,02,18,11,35,9.90
2010,02,18,11,36,9.90
2010,02,18,11,37,10.00
2010,02,18,11,38,10.00
2010,02,18,11,39,10.00
2010,02,18,11,40,10.00
2010,02,18,11,41,10.00
2010,02,18,11,42,10.00
2010,02,18,11,43,10.00
2010,02,18,11,44,10.10
2010,02,18,11,45,10.10
2010,02,18,11,46,10.20
2010,02,18,11,47,10.10
2010,02,18,11,48,10.10
2010,02,18,11,49,10.20
2010,02,18,11,50,10.20
2010,02,18,11,51,10.20
2010,02,18,11,52,10.30
2010,02,18,11,53,10.30
2010,02,18,11,54,10.30
2010,02,18,11,55,10.30
2010,02,18,11,56,10.30
2010,02,18,11,57,10.30
2010,02,18,11,58,10.30
2010,02,18,11,59,10.20
2010,02,18,12,00,10.20
2010,02,18,12,01,10.20
2010,02,18,12,02,10.20
2010,02,18,12,03,10.20
2010,02,18,12,04,10.20
2010,02,18,12,05,10.30
2010,02,18,12,06,10.30
2010,02,18,12,07,10.40
2010,02,18,12,08,10.40
2010,02,18,12,09,10.40
2010,02,18,12,10,10.30
2010,02,18,12,11,10.30
2010,02,18,12,12,10.30
2010,02,18,12,13,10.30
2010,02,18,12,14,10.30
2010,02,18,12,15,10.30
2010,02,18,12,16,10.30
2010,02,18,12,17,10.30
2010,02,18,12,18,10.20
2010,02,18,12,19,10.20
2010,02,18,12,20,10.30
2010,02,18,12,21,10.30
2010,02,18,12,22,10.30
2010,02,18,12,23,10.40
2010,02,18,12,24,10.40
2010,02,18,12,25,10.40
2010,02,18,12,26,10.40
2010,02,18,12,27,10.40
2010,02,18,12,28,10.40
2010,02,18,12,29,10.50
2010,02,18,12,30,10.60
2010,02,18,12,31,10.60
2010,02,18,12,32,10.60
2010,02,18,12,33,10.70
2010,02,18,12,34,10.70
2010,02,18,12,35,10.70
2010,02,18,12,36,10.70
2010,02,18,12,37,10.70
2010,02,18,12,38,10.70
2010,02,18,12,39,10.70
2010,02,18,12,40,10.70
2010,02,18,12,41,10.70
2010,02,18,12,42,10.70
2010,02,18,12,43,10.70
2010,02,18,12,44,10.70
2010,02,18,12,45,10.50
2010,02,18,12,46,10.40
2010,02,18,12,47,10.40
2010,02,18,12,48,10.40
2010,02,18,12,49,10.50
2010,02,18,12,50,10.60
2010,02,18,12,51,10.70
2010,02,18,12,52,10.70
2010,02,18,12,53,10.80
2010,02,18,12,54,10.90
2010,02,18,12,55,11.00
2010,02,18,12,56,11.10
2010,02,18,12,57,11.10
2010,02,18,12,58,11.10
2010,02,18,12,59,11.10
2010,02,18,13,00,11.10
2010,02,18,13,01,11.10
2010,02,18,13,02,11.10
2010,02,18,13,03,11.20
2010,02,18,13,04,11.20
2010,02,18,13,05,11.20
2010,02,18,13,06,11.20
2010,02,18,13,07,11.20
2010,02,18,13,08,11.30
2010,02,18,13,09,11.30
2010,02,18,13,10,11.30
2010,02,18,13,11,11.30
2010,02,18,13,12,11.30
2010,02,18,13,13,11.30
2010,02,18,13,14,11.30
2010,02,18,13,15,11.20
2010,02,18,13,16,11.20
2010,02,18,13,17,11.20
2010,02,18,13,18,11.10
2010,02,18,13,19,11.10
2010,02,18,13,20,11.10
2010,02,18,13,21,11.10
2010,02,18,13,22,11.10
2010,02,18,13,23,11.10
2010,02,18,13,24,11.00
2010,02,18,13,25,11.00
2010,02,18,13,26,10.90
2010,02,18,13,27,10.90
2010,02,18,13,28,10.90
2010,02,18,13,29,10.90
2010,02,18,13,30,10.90
2010,02,18,13,31,11.00
2010,02,18,13,32,10.90
2010,02,18,13,33,10.90
2010,02,18,13,34,10.90
2010,02,18,13,35,10.90
2010,02,18,13,36,11.00
2010,02,18,13,37,11.00
2010,02,18,13,38,11.00
2010,02,18,13,39,11.00
2010,02,18,13,40,10.90
2010,02,18,13,41,10.90
2010,02,18,13,42,11.00
2010,02,18,13,43,11.00
2010,02,18,13,44,11.00
2010,02,18,13,45,11.00
2010,02,18,13,46,11.00
2010,02,18,13,47,11.00
2010,02,18,13,48,11.00
2010,02,18,13,49,10.90
2010,02,18,13,50,10.90
2010,02,18,13,51,10.90
2010,02,18,13,52,11.00
2010,02,18,13,53,11.00
2010,02,18,13,54,11.10
2010,02,18,13,55,11.10
2010,02,18,13,56,11.10
2010,02,18,13,57,11.10
2010,02,18,13,58,11.10
2010,02,18,13,59,11.10
2010,02,18,14,00,11.10
2010,02,18,14,01,11.20
2010,02,18,14,02,11.20
2010,02,18,14,03,11.30
2010,02,18,14,04,11.30
2010,02,18,14,05,11.30
2010,02,18,14,06,11.30
2010,02,18,14,07,11.30
2010,02,18,14,08,11.30
2010,02,18,14,09,11.20
2010,02,18,14,10,11.20
2010,02,18,14,11,11.20
2010,02,18,14,12,11.20
2010,02,18,14,13,11.30
2010,02,18,14,14,11.30
2010,02,18,14,15,11.30
2010,02,18,14,16,11.30
2010,02,18,14,17,11.40
2010,02,18,14,18,11.30
2010,02,18,14,19,11.30
2010,02,18,14,20,11.20
2010,02,18,14,21,11.20
2010,02,18,14,22,11.20
2010,02,18,14,23,11.30
2010,02,18,14,24,11.30
2010,02,18,14,25,11.40
2010,02,18,14,26,11.40
2010,02,18,14,27,11.30
2010,02,18,14,28,11.30
2010,02,18,14,29,11.20
2010,02,18,14,30,11.20
2010,02,18,14,31,11.20
2010,02,18,14,32,11.20
2010,02,18,14,33,11.30
2010,02,18,14,34,11.40
2010,02,18,14,35,11.50
2010,02,18,14,36,11.60
2010,02,18,14,37,11.70
2010,02,18,14,38,11.80
2010,02,18,14,39,11.90
2010,02,18,14,40,12.00
2010,02,18,14,41,12.00
2010,02,18,14,42,12.10
2010,02,18,14,43,12.10
2010,02,18,14,44,12.00
2010,02,18,14,45,12.00
2010,02,18,14,46,11.90
2010,02,18,14,47,11.90
2010,02,18,14,48,11.80
2010,02,18,14,49,11.80
2010,02,18,14,50,11.80
2010,02,18,14,51,11.80
2010,02,18,14,52,11.80
2010,02,18,14,53,11.80
2010,02,18,14,54,11.80
2010,02,18,14,55,11.80
2010,02,18,14,56,11.90
2010,02,18,14,57,11.90
2010,02,18,14,58,11.90
2010,02,18,14,59,12.00
2010,02,18,15,00,12.00
2010,02,18,15,01,12.00
2010,02,18,15,02,11.90
2010,02,18,15,03,11.90
2010,02,18,15,04,11.90
2010,02,18,15,05,11.90
2010,02,18,15,06,11.80
2010,02,18,15,07,11.70
2010,02,18,15,08,11.70
2010,02,18,15,09,11.60
2010,02,18,15,10,11.60
2010,02,18,15,11,11.60
2010,02,18,15,12,11.70
2010,02,18,15,13,11.70
2010,02,18,15,14,11.90
2010,02,18,15,15,12.00
2010,02,18,15,16,12.10
2010,02,18,15,17,12.20
2010,02,18,15,18,12.20
2010,02,18,15,19,12.20
2010,02,18,15,20,12.30
2010,02,18,15,21,12.30
2010,02,18,15,22,12.40
2010,02,18,15,23,12.40
2010,02,18,15,24,12.40
2010,02,18,15,25,12.40
2010,02,18,15,26,12.40
2010,02,18,15,27,12.40
2010,02,18,15,28,12.30
2010,02,18,15,29,12.30
2010,02,18,15,30,12.30
2010,02,18,15,31,12.30
2010,02,18,15,32,12.30
2010,02,18,15,33,12.20
2010,02,18,15,34,12.20
2010,02,18,15,35,12.20
2010,02,18,15,36,12.20
2010,02,18,15,37,12.30
2010,02,18,15,38,12.40
2010,02,18,15,39,12.40
2010,02,18,15,40,12.50
2010,02,18,15,41,12.50
2010,02,18,15,42,12.50
2010,02,18,15,43,12.50
2010,02,18,15,44,12.50
2010,02,18,15,45,12.50
2010,02,18,15,46,12.50
2010,02,18,15,47,12.40
2010,02,18,15,48,12.40
2010,02,18,15,49,12.40
2010,02,18,15,50,12.30
2010,02,18,15,51,12.30
2010,02,18,15,52,12.20
2010,02,18,15,53,12.10
2010,02,18,15,54,12.10
2010,02,18,15,55,12.00
2010,02,18,15,56,11.90
2010,02,18,15,57,11.90
2010,02,18,15,58,11.90
2010,02,18,15,59,11.90
2010,02,18,16,00,11.90
2010,02,18,16,01,11.80
2010,02,18,16,02,11.80
2010,02,18,16,03,11.80
2010,02,18,16,04,11.70
2010,02,18,16,05,11.70
2010,02,18,16,06,11.60
2010,02,18,16,07,11.50
2010,02,18,16,08,11.40
2010,02,18,16,09,11.30
2010,02,18,16,10,11.30
2010,02,18,16,11,11.20
2010,02,18,16,12,11.10
2010,02,18,16,13,11.10
2010,02,18,16,14,11.10
2010,02,18,16,15,11.00
2010,02,18,16,16,11.00
2010,02,18,16,17,10.90
2010,02,18,16,18,10.90
2010,02,18,16,19,10.90
2010,02,18,16,20,10.90
2010,02,18,16,21,10.80
2010,02,18,16,22,10.80
2010,02,18,16,23,10.80
2010,02,18,16,24,10.70
2010,02,18,16,25,10.70
2010,02,18,16,26,10.70
2010,02,18,16,27,10.70
2010,02,18,16,28,10.70
2010,02,18,16,29,10.60
2010,02,18,16,30,10.60
2010,02,18,16,31,10.60
2010,02,18,16,32,10.60
2010,02,18,16,33,10.60
2010,02,18,16,34,10.70
2010,02,18,16,35,10.70
2010,02,18,16,36,10.70
2010,02,18,16,37,10.70
2010,02,18,16,38,10.60
2010,02,18,16,39,10.60
2010,02,18,16,40,10.60
2010,02,18,16,41,10.50
2010,02,18,16,42,10.50
2010,02,18,16,43,10.50
2010,02,18,16,44,10.40
2010,02,18,16,45,10.40
2010,02,18,16,46,10.40
2010,02,18,16,47,10.30
2010,02,18,16,48,10.30
2010,02,18,16,49,10.20
2010,02,18,16,50,10.20
2010,02,18,16,51,10.10
2010,02,18,16,52,10.10
2010,02,18,16,53,10.00
2010,02,18,16,54,9.90
2010,02,18,16,55,9.80
2010,02,18,16,56,9.80
2010,02,18,16,57,9.70
2010,02,18,16,58,9.60
2010,02,18,16,59,9.50
2010,02,18,17,00,9.50
2010,02,18,17,01,9.40
2010,02,18,17,02,9.30
2010,02,18,17,03,9.30
2010,02,18,17,04,9.20
2010,02,18,17,05,9.10
2010,02,18,17,06,9.00
2010,02,18,17,07,9.00
2010,02,18,17,08,8.90
2010,02,18,17,09,8.80
2010,02,18,17,10,8.80
2010,02,18,17,11,8.70
2010,02,18,17,12,8.60
2010,02,18,17,13,8.50
2010,02,18,17,14,8.50
2010,02,18,17,15,8.40
2010,02,18,17,16,8.40
2010,02,18,17,17,8.40
2010,02,18,17,18,8.50
2010,02,18,17,19,8.50
2010,02,18,17,20,8.60
2010,02,18,17,21,8.70
2010,02,18,17,22,8.70
2010,02,18,17,23,8.70
2010,02,18,17,24,8.70
2010,02,18,17,25,8.70
2010,02,18,17,26,8.70
2010,02,18,17,27,8.60
2010,02,18,17,28,8.50
2010,02,18,17,29,8.50
2010,02,18,17,30,8.40
2010,02,18,17,31,8.30
2010,02,18,17,32,8.10
2010,02,18,17,33,7.90
2010,02,18,17,34,7.70
2010,02,18,17,35,7.60
2010,02,18,17,36,7.60
2010,02,18,17,37,7.70
2010,02,18,17,38,7.60
2010,02,18,17,39,7.60
2010,02,18,17,40,7.50
2010,02,18,17,41,7.40
2010,02,18,17,42,7.40
2010,02,18,17,43,7.30
2010,02,18,17,44,7.20
2010,02,18,17,45,7.20
2010,02,18,17,46,7.10
2010,02,18,17,47,7.00
2010,02,18,17,48,6.90
2010,02,18,17,49,6.80
2010,02,18,17,50,6.70
2010,02,18,17,51,6.60
2010,02,18,17,52,6.60